STARLINK-3791, 52269

Orbit data source: Space-Track

STARLINK-3791, 52269 is a payload satellite owned by SpaceX/Seattle (US) in LEO that was launched on Thu, 21 Apr 2022 UTC via an FALCON 9 launch vehicle from the Air Force Eastern Test Range (AFETR). Payload-class satellites include a variety of spacecraft equipped with specific instruments for various scientific and technological missions. These include communications satellites like Starlink; space stations such as the ISS; scientific satellites like the Hubble; Earth observation satellites from companies like Planet Labs, Umbra, and HawkEye 360; GPS; miniature CubeSats for education and research; and military/defense satellites.

Loading next visibility...
Identifier
52269, 2022-041J
Orbit
LEO
Country
Flag of USUS
Related business
Manufacturer
SpaceX/Seattle
Mission
Operational Commercial Communications
Bus & Motor
STARLINK, Unknown motor
Mass
297 kg wet, ~275 kg dry
Launch date (UTC)
2022-04-21 (4 years ago)
Launch vehicle
FALCON 9
Launch site
Air Force Eastern Test Range (AFETR)
Object type
Payload
Rocket body
Debris
Shape & HBR
Box + 1 Pan, 10.1 m
Radar Cross Section
11.087 m², Large (>1 m²)

Expand to show TLE details & history
Last TLE update: 8 hours ago

TLE from 8 hours ago
0 STARLINK-3791
1 52269U 22041J   26237.00002315  .00120925  00000-0  46733-2 0  9998
2 52269  53.1607  71.6051 0000676  50.7685 280.0778 15.25323415  5804
Epoch: 2026-08-25T00:00Z
TLE epoch observation values (Epoch: 2026-08-25T00:00:02.000Z)
Latitude
-23.14431°
Longitude
79.75297°
Altitude
496.348 km
Speed
7.617 km/s
True Right ascension
03h 32m 08s
True Declination
-23° 00' 56"
Sunlit
Object was in daylight at epoch
Visualization orbit readout
Latitude
Unknown
Longitude
Unknown
Altitude
Unknown
Speed
Unknown
Apparent Right ascension
Unknown
Apparent Declination
Unknown
Sunlit
N/A
Visualization observer readout
Local Sidereal Time
23:01:32
Azimuth
Unknown
Elevation
Unknown
Doppler factor
Unknown
Orbital elements
Apogee altitude
490.535 km
Perigee altitude
489.606 km
Semi-major axis
6,868.207 km
Eccentricity
0.00007
Inclination
53.1607°
RAAN
71.6051°
Arg. of periapsis
50.7685°
True anomaly
280.07017°
Mean anomaly
280.0778°
Eccentric anomaly
280.07399°
Mean motion
3.8131 °/min
Orbital period
94.41 mins
BSTAR
0.0046733
Loading maneuver chart data...
Computing Atmospheric mass density...

Documentation

Showing up to 5 results
|